QPF
0.00 0.00 0.00 0.00 0.00 0.00 0.00 0.00 0.00 0.00 0.00 0.00 0.00 0.01 0.03 0.04 0.02 0.00 0.00 0.00 0.00 0.00 0.00 0.00 0.00 0.00 0.00 0.00 0.00 0.00 0.00 0.00 0.00 0.00 0.00 0.00 0.00 0.00 0.00 0.00 0.00 0.00 0.00 0.00 0.00
0.00 0.00 0.00 0.00 0.00 0.00 0.00 0.00 0.00 0.00 0.00 0.00 0.00 0.00 0.02 0.02 0.01 0.00 0.00 0.00 0.00 0.00 0.00 0.00 0.00 0.00 0.00 0.00 0.00 0.00 0.00 0.00 0.00 0.00 0.00 0.00 0.00 0.00 0.00 0.00 0.00 0.00 0.00 0.00 0.00
0.00 0.00 0.00 0.00 0.00 0.00 0.00 0.00 0.00 0.00 0.00 0.00 0.00 0.00 0.01 0.01 0.00 0.00 0.00 0.00 0.00 0.00 0.00 0.00 0.00 0.00 0.00 0.00 0.00 0.00 0.00 0.00 0.00 0.00 0.00 0.00 0.00 0.00 0.00 0.00 0.00 0.00 0.00 0.00 0.00
0.00 0.00 0.00 0.00 0.00 0.00 0.00 0.00 0.00 0.00 0.00 0.00 0.00 0.00 0.00 0.01 0.00 0.00 0.00 0.00 0.00 0.01 0.00 0.00 0.00 0.00 0.00 0.00 0.00 0.00 0.00 0.00 0.00 0.00 0.00 0.00 0.00 0.00 0.00 0.00 0.00 0.00 0.00 0.00 0.00
0.00 0.00 0.00 0.00 0.00 0.00 0.00 0.00 0.00 0.00 0.00 0.00 0.00 0.00 0.00 0.00 0.00 0.00 0.00 0.00 0.00 0.00 0.00 0.00 0.00 0.00 0.00 0.00 0.00 0.00 0.00 0.00 0.00 0.00 0.00 0.00 0.00 0.00 0.00 0.00 0.00 0.00 0.00 0.00 0.00
0.00 0.00 0.00 0.00 0.00 0.00 0.00 0.00 0.00 0.00 0.00 0.00 0.00 0.00 0.00 0.00 0.00 0.00 0.00 0.00 0.00 0.00 0.00 0.00 0.00 0.00 0.00 0.00 0.00 0.00 0.00 0.00 0.00 0.00 0.00 0.00 0.00 0.00 0.00 0.00 0.00 0.00 0.00 0.00 0.00
0.01 0.00 0.00 0.00 0.00 0.00 0.00 0.00 0.00 0.00 0.00 0.00 0.00 0.00 0.00 0.00 0.00 0.00 0.00 0.00 0.00 0.00 0.00 0.00 0.00 0.01 0.01 0.00 0.00 0.00 0.00 0.00 0.00 0.00 0.00 0.00 0.00 0.00 0.00 0.00 0.00 0.00 0.00 0.00 0.00
0.01 0.01 0.00 0.00 0.00 0.00 0.00 0.00 0.00 0.00 0.00 0.00 0.00 0.00 0.00 0.00 0.00 0.00 0.00 0.00 0.00 0.00 0.00 0.00 0.00 0.00 0.00 0.00 0.00 0.00 0.00 0.00 0.00 0.00 0.00 0.00 0.00 0.00 0.00 0.00 0.00 0.00 0.00 0.00 0.00
0.01 0.01 0.00 0.00 0.00 0.00 0.01 0.00 0.00 0.00 0.00 0.00 0.00 0.00 0.00 0.00 0.00 0.00 0.00 0.00 0.00 0.00 0.00 0.00 0.00 0.00 0.00 0.00 0.00 0.00 0.00 0.00 0.00 0.00 0.00 0.00 0.00 0.00 0.00 0.00 0.00 0.00 0.00 0.00 0.00
0.02 0.01 0.00 0.00 0.00 0.00 0.00 0.00 0.00 0.00 0.01 0.01 0.01 0.00 0.00 0.00 0.00 0.00 0.00 0.00 0.00 0.00 0.00 0.00 0.00 0.00 0.00 0.01 0.01 0.00 0.00 0.00 0.00 0.00 0.00 0.00 0.00 0.00 0.00 0.00 0.00 0.00 0.00 0.00 0.00
0.03 0.03 0.03 0.00 0.00 0.00 0.00 0.00 0.00 0.00 0.01 0.00 0.00 0.00 0.00 0.00 0.00 0.00 0.00 0.00 0.00 0.00 0.00 0.00 0.00 0.00 0.00 0.00 0.00 0.00 0.00 0.00 0.00 0.00 0.00 0.00 0.00 0.00 0.00 0.00 0.00 0.00 0.00 0.00 0.00
0.03 0.03 0.03 0.01 0.01 0.00 0.00 0.00 0.00 0.00 0.00 0.00 0.00 0.00 0.00 0.00 0.00 0.00 0.00 0.00 0.00 0.00 0.00 0.00 0.00 0.00 0.00 0.00 0.00 0.00 0.00 0.00 0.00 0.00 0.01 0.00 0.00 0.00 0.00 0.00 0.00 0.00 0.00 0.00 0.00
0.05 0.04 0.03 0.01 0.02 0.01 0.00 0.00 0.00 0.00 0.00 0.00 0.00 0.00 0.00 0.00 0.00 0.00 0.00 0.00 0.00 0.00 0.00 0.00 0.00 0.00 0.00 0.00 0.00 0.00 0.00 0.00 0.00 0.00 0.00 0.01 0.00 0.00 0.00 0.00 0.00 0.00 0.00 0.00 0.00
0.08 0.07 0.03 0.01 0.01 0.00 0.00 0.00 0.00 0.00 0.00 0.00 0.00 0.00 0.00 0.00 0.00 0.00 0.00 0.00 0.01 0.00 0.00 0.00 0.00 0.00 0.00 0.00 0.00 0.00 0.00 0.00 0.00 0.01 0.00 0.03 0.01 0.00 0.00 0.00 0.00 0.00 0.00 0.00 0.00
0.08 0.07 0.01 0.00 0.00 0.00 0.00 0.00 0.00 0.00 0.00 0.00 0.00 0.00 0.00 0.00 0.00 0.00 0.00 0.01 0.01 0.00 0.01 0.02 0.00 0.00 0.00 0.00 0.00 0.00 0.00 0.00 0.00 0.01 0.02 0.01 0.04 0.01 0.00 0.00 0.00 0.00 0.00 0.00 0.00
0.15 0.05 0.02 0.00 0.00 0.00 0.00 0.00 0.00 0.00 0.00 0.00 0.00 0.00 0.00 0.00 0.00 0.00 0.00 0.01 0.04 0.11 0.12 0.02 0.00 0.00 0.00 0.00 0.00 0.00 0.01 0.01 0.02 0.05 0.03 0.01 0.02 0.01 0.00 0.00 0.00 0.00 0.00 0.00 0.00
0.30 0.05 0.02 0.00 0.00 0.00 0.00 0.00 0.00 0.00 0.00 0.00 0.00 0.00 0.00 0.00 0.00 0.00 0.01 0.03 0.11 0.16 0.21 0.12 0.02 0.00 0.00 0.00 0.00 0.00 0.02 0.03 0.02 0.03 0.01 0.00 0.01 0.02 0.00 0.00 0.00 0.00 0.00 0.00 0.00
0.37 0.17 0.03 0.00 0.00 0.00 0.00 0.00 0.00 0.00 0.00 0.00 0.00 0.00 0.00 0.00 0.00 0.01 0.03 0.04 0.03 0.11 0.08 0.06 0.04 0.00 0.00 0.00 0.00 0.00 0.00 0.01 0.01 0.00 0.00 0.01 0.03 0.03 0.00 0.00 0.00 0.00 0.00 0.00 0.00
0.58 0.28 0.13 0.00 0.00 0.00 0.00 0.00 0.00 0.00 0.00 0.00 0.00 0.02 0.01 0.00 0.01 0.02 0.02 0.02 0.00 0.02 0.04 0.01 0.00 0.00 0.00 0.00 0.01 0.01 0.03 0.00 0.02 0.02 0.02 0.00 0.02 0.02 0.01 0.00 0.00 0.00 0.00 0.00 0.00
0.96 0.57 0.13 0.01 0.01 0.01 0.01 0.00 0.00 0.00 0.00 0.00 0.01 0.02 0.00 0.00 0.01 0.01 0.00 0.00 0.00 0.00 0.00 0.00 0.00 0.00 0.02 0.01 0.01 0.01 0.01 0.01 0.04 0.05 0.01 0.00 0.01 0.04 0.00 0.00 0.00 0.00 0.00 0.00 0.00
0.83 0.54 0.19 0.07 0.13 0.13 0.05 0.00 0.00 0.00 0.00 0.00 0.02 0.01 0.00 0.00 0.00 0.00 0.00 0.00 0.00 0.00 0.00 0.00 0.01 0.03 0.22 0.07 0.00 0.02 0.07 0.02 0.01 0.04 0.10 0.04 0.01 0.00 0.00 0.01 0.01 0.01 0.00 0.00 0.00
0.81 0.47 0.13 0.21 0.23 0.14 0.02 0.00 0.00 0.00 0.00 0.01 0.05 0.01 0.00 0.00 0.00 0.00 0.00 0.00 0.00 0.00 0.00 0.01 0.05 0.08 0.03 0.02 0.02 0.01 0.03 0.02 0.01 0.01 0.10 0.14 0.05 0.00 0.00 0.00 0.01 0.01 0.00 0.00 0.00
0.75 0.33 0.22 0.18 0.08 0.02 0.00 0.00 0.00 0.00 0.01 0.03 0.04 0.00 0.00 0.00 0.00 0.00 0.00 0.00 0.00 0.00 0.04 0.07 0.15 0.11 0.05 0.14 0.13 0.06 0.03 0.02 0.01 0.09 0.20 0.20 0.10 0.00 0.00 0.00 0.00 0.00 0.00 0.00 0.00
0.72 0.30 0.23 0.35 0.11 0.00 0.00 0.00 0.00 0.00 0.01 0.07 0.05 0.00 0.00 0.00 0.00 0.00 0.00 0.00 0.00 0.00 0.03 0.12 0.11 0.12 0.15 0.13 0.15 0.03 0.01 0.03 0.11 0.27 0.21 0.11 0.04 0.00 0.00 0.00 0.00 0.00 0.00 0.00 0.00
0.46 0.17 0.04 0.11 0.06 0.01 0.00 0.00 0.00 0.01 0.02 0.09 0.04 0.00 0.00 0.00 0.00 0.00 0.00 0.00 0.00 0.00 0.05 0.16 0.28 0.31 0.11 0.02 0.07 0.03 0.01 0.07 0.31 0.28 0.17 0.05 0.02 0.00 0.00 0.00 0.00 0.00 0.00 0.00 0.00
0.19 0.07 0.00 0.00 0.00 0.00 0.01 0.01 0.01 0.00 0.04 0.08 0.07 0.00 0.00 0.00 0.00 0.00 0.00 0.00 0.00 0.00 0.02 0.18 0.39 0.29 0.07 0.00 0.02 0.02 0.07 0.17 0.39 0.34 0.22 0.09 0.05 0.00 0.00 0.00 0.00 0.00 0.00 0.00 0.00
0.08 0.00 0.00 0.00 0.00 0.00 0.00 0.00 0.00 0.00 0.01 0.03 0.04 0.02 0.00 0.00 0.00 0.00 0.00 0.00 0.00 0.00 0.01 0.09 0.21 0.14 0.15 0.06 0.16 0.10 0.06 0.20 0.31 0.23 0.15 0.07 0.02 0.00 0.00 0.00 0.00 0.00 0.00 0.00 0.00
MSLP
1016.30 1016.06 1016.04 1016.04 1016.05 1015.91 1015.78 1015.56 1015.35 1015.14 1015.07 1014.92 1014.82 1014.71 1014.76 1014.93 1015.18 1015.45 1015.38 1014.37 1014.02 1013.77 1013.72 1013.65 1013.45 1013.61 1013.56 1013.77 1013.70 1013.92 1014.50 1014.06 1013.41 1012.80 1011.26 1010.26 1009.88 1008.87 1008.42 1008.06 1007.88 1007.91 1008.29 1007.98 1008.10
1015.84 1015.76 1015.75 1015.77 1015.82 1015.73 1015.64 1015.46 1015.14 1014.97 1014.97 1014.95 1014.88 1014.63 1014.67 1014.83 1015.10 1014.68 1013.96 1013.83 1013.69 1013.63 1013.98 1013.95 1014.04 1014.14 1014.15 1013.97 1013.91 1013.96 1013.59 1012.76 1012.01 1011.50 1010.70 1010.15 1010.14 1009.51 1009.18 1008.63 1008.21 1008.01 1008.09 1008.10 1008.53
1015.49 1015.41 1015.50 1015.44 1015.57 1015.39 1015.33 1015.22 1014.97 1014.89 1015.01 1014.86 1014.87 1014.65 1014.71 1014.85 1014.92 1013.62 1012.88 1013.08 1013.38 1013.54 1013.98 1014.15 1014.27 1014.43 1014.53 1014.19 1013.90 1013.29 1012.47 1012.23 1011.52 1011.01 1010.64 1010.16 1010.06 1009.64 1009.19 1008.96 1008.58 1008.24 1008.39 1008.55 1008.98
1015.08 1015.11 1015.10 1015.02 1015.16 1015.15 1014.97 1015.01 1014.83 1014.87 1015.00 1014.85 1014.84 1014.83 1014.77 1015.03 1014.59 1012.92 1012.63 1012.35 1012.69 1013.35 1013.94 1014.20 1014.48 1014.66 1014.67 1014.33 1013.73 1013.31 1012.32 1012.10 1011.53 1011.08 1010.83 1010.50 1009.94 1009.67 1009.43 1008.95 1008.22 1008.17 1008.15 1008.61 1008.89
1014.49 1014.64 1014.75 1014.75 1014.71 1014.80 1014.68 1014.79 1014.68 1014.75 1014.91 1014.85 1014.86 1014.90 1014.96 1015.02 1013.90 1012.83 1012.69 1012.61 1012.78 1013.30 1013.91 1014.33 1014.61 1014.65 1014.54 1014.15 1013.84 1013.24 1012.72 1012.12 1011.60 1011.28 1010.92 1010.42 1010.01 1009.83 1009.08 1008.86 1008.51 1008.19 1008.04 1008.13 1008.41
1013.97 1014.15 1014.31 1014.39 1014.46 1014.55 1014.45 1014.47 1014.55 1014.68 1014.75 1014.82 1014.89 1014.86 1015.10 1014.68 1012.95 1012.73 1012.93 1012.98 1013.20 1013.64 1013.90 1014.17 1014.08 1014.14 1014.31 1014.14 1013.96 1012.99 1012.69 1012.14 1011.67 1011.14 1010.87 1010.50 1009.75 1009.70 1008.81 1008.57 1008.50 1008.21 1008.00 1007.80 1008.12
1013.37 1013.54 1013.90 1013.99 1014.20 1014.25 1014.29 1014.28 1014.40 1014.48 1014.56 1014.72 1014.91 1015.08 1015.00 1013.70 1012.56 1012.61 1012.95 1013.17 1013.15 1013.45 1013.76 1013.83 1013.96 1014.14 1013.95 1014.00 1013.53 1013.25 1012.78 1012.04 1011.50 1011.08 1010.67 1010.53 1009.06 1008.28 1008.74 1008.39 1008.11 1008.01 1007.80 1007.71 1007.83
1012.72 1012.97 1013.37 1013.66 1013.89 1013.95 1014.04 1014.16 1014.29 1014.39 1014.48 1014.64 1014.82 1015.04 1014.49 1012.81 1012.59 1012.87 1012.81 1013.07 1012.97 1013.15 1013.44 1013.57 1013.75 1014.01 1014.00 1013.82 1013.74 1013.63 1013.25 1012.46 1011.12 1010.86 1010.53 1010.75 1006.27 1008.03 1008.19 1008.25 1008.18 1007.99 1007.92 1007.87 1007.84
1012.06 1012.37 1012.76 1013.18 1013.53 1013.75 1013.81 1014.04 1014.22 1014.30 1014.33 1014.55 1014.85 1014.97 1013.85 1012.54 1012.61 1012.37 1012.76 1013.05 1012.93 1013.07 1013.10 1013.27 1013.58 1013.95 1014.19 1014.35 1014.49 1014.02 1013.39 1012.51 1011.56 1010.71 1010.56 1009.95 1006.85 1008.06 1007.98 1008.12 1007.91 1007.67 1007.61 1007.84 1007.95
1011.38 1011.75 1012.18 1012.66 1013.13 1013.44 1013.68 1013.97 1014.19 1014.25 1014.29 1014.49 1014.48 1014.95 1013.38 1012.49 1012.11 1012.00 1012.36 1012.76 1013.14 1013.31 1013.51 1013.60 1013.95 1014.26 1014.55 1014.76 1013.66 1013.80 1013.40 1012.39 1011.81 1011.22 1010.46 1009.66 1007.61 1008.27 1007.85 1007.56 1007.48 1007.37 1007.26 1007.64 1007.92
1010.67 1011.04 1011.56 1012.12 1012.63 1013.10 1013.77 1014.37 1014.83 1014.69 1013.97 1013.26 1013.25 1012.91 1012.41 1012.00 1011.96 1012.05 1012.22 1012.80 1013.24 1013.82 1014.24 1014.32 1014.62 1014.17 1014.41 1014.22 1014.14 1013.99 1013.41 1012.78 1012.46 1011.71 1011.16 1010.01 1008.48 1008.02 1007.69 1007.17 1007.10 1006.91 1007.24 1007.46 1007.75
1009.82 1010.28 1010.94 1011.58 1012.21 1012.75 1013.41 1013.73 1013.32 1013.18 1013.36 1013.01 1012.89 1012.72 1012.30 1012.28 1012.30 1012.25 1012.24 1013.20 1013.48 1013.84 1014.62 1015.13 1014.19 1014.22 1014.33 1014.31 1014.31 1014.15 1013.77 1013.01 1012.76 1012.30 1011.41 1010.01 1008.40 1007.76 1006.74 1006.13 1006.32 1006.34 1006.83 1007.17 1007.71
1009.10 1009.55 1010.27 1011.12 1011.87 1012.73 1013.03 1013.06 1013.00 1013.08 1013.37 1012.71 1012.27 1012.23 1012.23 1012.46 1012.09 1012.00 1012.28 1012.65 1013.18 1013.76 1014.27 1014.46 1013.77 1013.48 1013.96 1013.91 1014.12 1013.72 1013.49 1013.61 1013.35 1012.63 1011.01 1010.59 1007.95 1007.26 1005.97 1005.75 1005.58 1005.40 1005.84 1006.44 1006.91
1008.49 1008.82 1009.71 1010.92 1012.31 1012.40 1012.75 1012.88 1012.94 1013.20 1013.55 1012.65 1012.22 1011.58 1011.70 1012.00 1011.87 1011.43 1011.58 1012.15 1013.21 1013.42 1014.29 1014.15 1013.88 1013.44 1013.48 1013.42 1013.81 1013.07 1013.21 1013.27 1013.10 1012.92 1011.70 1010.35 1007.94 1006.24 1005.26 1004.72 1004.90 1004.84 1005.55 1005.93 1006.74
1007.98 1008.34 1009.25 1010.08 1010.89 1011.81 1011.86 1012.55 1013.00 1013.67 1013.57 1012.21 1012.07 1011.72 1011.77 1011.90 1011.60 1011.39 1011.11 1011.59 1012.27 1013.09 1013.83 1013.20 1013.00 1012.99 1012.78 1012.68 1012.86 1012.64 1012.93 1012.87 1012.87 1012.47 1012.10 1010.48 1009.88 1005.43 1005.42 1004.07 1003.49 1003.60 1004.49 1005.06 1005.87
1007.45 1007.76 1008.85 1009.88 1010.50 1011.07 1011.59 1012.39 1013.36 1014.50 1012.49 1011.76 1011.80 1011.97 1012.11 1011.89 1011.58 1011.50 1011.73 1011.99 1012.28 1012.85 1012.89 1012.79 1012.57 1012.44 1011.75 1011.88 1012.23 1012.51 1012.78 1012.65 1012.48 1012.38 1011.02 1008.73 1008.96 1004.72 1004.09 1002.85 1002.80 1003.11 1003.72 1004.55 1005.66
1007.08 1007.10 1008.11 1008.93 1009.68 1010.84 1011.54 1012.69 1013.78 1013.29 1011.19 1011.48 1011.44 1011.81 1011.83 1011.58 1011.54 1011.46 1011.68 1012.13 1012.38 1012.83 1012.65 1012.68 1012.60 1012.32 1011.86 1011.85 1011.81 1012.41 1012.93 1012.61 1012.19 1011.38 1008.69 1007.70 1007.48 1004.19 1002.84 1002.21 1001.75 1002.09 1002.96 1004.20 1005.20
1006.88 1006.13 1007.50 1008.45 1008.92 1010.30 1011.42 1012.54 1012.69 1010.67 1010.64 1010.54 1010.91 1011.52 1011.45 1011.12 1011.41 1011.11 1011.45 1011.78 1012.09 1012.49 1012.57 1012.17 1012.21 1011.53 1010.98 1010.83 1010.98 1011.25 1011.63 1011.36 1010.83 1009.93 1008.63 1007.40 1005.08 1002.67 1001.68 1000.89 1001.37 1001.65 1002.32 1003.40 1005.06
1006.42 1005.48 1006.96 1008.45 1008.73 1009.82 1010.98 1011.73 1010.57 1009.74 1009.47 1009.95 1010.75 1010.96 1010.82 1010.94 1011.06 1011.08 1011.15 1011.29 1011.01 1011.35 1011.89 1011.70 1011.30 1010.26 1009.98 1010.19 1010.69 1010.83 1010.86 1010.28 1010.81 1009.54 1008.44 1005.81 1003.69 1002.16 1000.98 1000.32 1000.53 1000.54 1001.73 1002.92 1004.02
1006.40 1004.96 1006.69 1007.88 1008.62 1009.68 1010.73 1010.32 1009.63 1008.97 1009.15 1009.53 1009.80 1010.06 1010.22 1010.37 1010.85 1011.23 1010.78 1009.47 1009.70 1009.90 1010.52 1010.62 1010.80 1009.87 1009.78 1009.89 1009.95 1009.59 1009.36 1010.50 1010.78 1009.69 1007.28 1004.61 1002.95 1000.87 999.82 999.90 1000.09 1001.13 1001.74 1002.97 1004.11
1005.48 1004.73 1006.05 1007.65 1008.75 1009.74 1009.53 1009.36 1008.88 1008.71 1008.63 1009.10 1009.06 1009.34 1009.52 1009.80 1010.16 1010.41 1009.44 1008.47 1008.49 1008.60 1009.59 1010.23 1010.76 1010.41 1010.00 1009.02 1008.89 1009.54 1009.23 1008.70 1008.63 1008.29 1006.80 1004.44 1001.60 999.60 998.62 998.82 999.95 1001.35 1001.71 1002.74 1003.98
1004.37 1004.81 1005.94 1007.25 1008.06 1008.81 1008.65 1008.44 1008.27 1008.20 1008.38 1008.58 1008.72 1008.88 1008.82 1008.86 1009.29 1009.47 1008.33 1007.52 1007.08 1007.44 1008.77 1009.16 1009.73 1009.09 1008.26 1007.89 1008.12 1007.85 1007.79 1008.10 1007.58 1007.08 1006.38 1005.15 1001.89 999.45 998.14 998.50 999.55 1001.63 1001.71 1003.13 1004.24
1003.67 1004.61 1005.91 1006.45 1006.92 1007.67 1007.81 1007.82 1007.82 1007.82 1007.81 1008.00 1007.93 1008.06 1007.72 1008.05 1008.51 1007.82 1006.94 1005.88 1006.23 1006.73 1007.54 1008.56 1008.54 1008.28 1007.31 1007.35 1007.04 1006.56 1006.67 1007.15 1007.41 1006.36 1005.58 1004.99 1002.09 1000.20 998.93 999.47 1000.12 1001.43 1002.34 1003.52 1004.64
1003.53 1004.39 1005.42 1006.28 1006.15 1006.70 1007.22 1007.13 1007.25 1007.18 1007.29 1007.36 1007.25 1007.33 1007.19 1007.20 1006.93 1006.18 1005.85 1005.02 1005.28 1005.79 1006.93 1008.00 1007.55 1007.07 1005.85 1004.20 1004.51 1004.56 1005.20 1005.67 1006.72 1005.87 1005.30 1003.80 1003.49 1001.38 1000.68 1000.16 1000.94 1001.78 1002.41 1003.36 1004.50
1003.36 1002.87 1003.27 1004.72 1005.69 1005.88 1006.29 1006.29 1006.44 1006.62 1006.91 1006.82 1006.87 1006.49 1006.50 1006.18 1005.65 1005.41 1004.93 1004.54 1004.95 1005.47 1006.72 1007.35 1006.62 1006.04 1004.66 1003.60 1003.88 1003.40 1003.41 1004.46 1004.65 1004.85 1004.73 1003.66 1004.15 1001.88 1001.24 1000.15 1000.70 1001.57 1002.73 1003.75 1004.84
1002.92 1002.66 1003.32 1003.79 1004.95 1005.34 1005.67 1005.52 1005.64 1005.88 1006.11 1006.05 1006.14 1005.60 1005.73 1005.49 1004.52 1004.12 1003.99 1003.74 1004.51 1005.58 1006.15 1006.41 1005.83 1004.62 1002.88 1001.68 1002.28 1001.79 1002.26 1003.07 1003.86 1004.78 1004.64 1004.34 1003.79 1001.76 1000.43 1000.51 1001.36 1001.94 1002.81 1003.80 1004.68
1002.73 1002.45 1002.42 1003.66 1004.23 1004.98 1004.71 1004.89 1004.94 1005.22 1005.44 1005.32 1005.32 1005.18 1004.82 1004.38 1004.01 1003.46 1003.14 1003.13 1003.22 1004.15 1005.25 1005.67 1004.98 1003.65 1002.27 1001.34 1001.25 1001.15 1001.04 1001.97 1003.01 1003.83 1004.09 1004.16 1002.15 1000.06 1000.84 1001.38 1002.01 1002.45 1002.94 1003.49 1004.39
Thickness
5598 5602 5603 5606 5607 5611 5614 5618 5622 5626 5626 5628 5630 5632 5632 5630 5627 5626 5624 5634 5639 5644 5646 5648 5651 5649 5654 5652 5656 5657 5634 5637 5652 5658 5677 5688 5689 5705 5716 5712 5718 5723 5717 5728 5732
5595 5599 5598 5600 5601 5605 5608 5612 5617 5620 5620 5621 5622 5625 5626 5624 5622 5626 5628 5632 5634 5637 5636 5636 5634 5637 5636 5643 5645 5639 5636 5649 5667 5673 5676 5679 5679 5689 5696 5700 5707 5714 5720 5722 5723
5591 5594 5594 5596 5596 5600 5603 5606 5612 5613 5613 5615 5616 5618 5618 5617 5615 5624 5631 5630 5630 5630 5628 5629 5628 5629 5628 5635 5637 5643 5646 5656 5667 5674 5675 5674 5671 5683 5687 5688 5699 5704 5708 5713 5711
5585 5588 5591 5593 5593 5595 5600 5601 5605 5606 5605 5609 5609 5610 5611 5609 5601 5625 5626 5629 5627 5625 5620 5618 5617 5617 5619 5622 5635 5630 5650 5654 5661 5666 5665 5665 5674 5670 5682 5692 5706 5708 5711 5706 5707
5582 5583 5586 5588 5590 5591 5595 5596 5599 5599 5599 5601 5602 5603 5602 5599 5606 5618 5620 5621 5620 5616 5611 5608 5605 5609 5611 5619 5624 5627 5638 5647 5653 5655 5658 5664 5661 5663 5674 5690 5696 5703 5708 5705 5703
5578 5579 5581 5583 5585 5586 5590 5592 5592 5592 5593 5594 5595 5594 5591 5588 5611 5613 5611 5611 5609 5605 5602 5603 5604 5605 5605 5611 5613 5628 5631 5636 5642 5648 5651 5651 5659 5657 5675 5685 5687 5696 5701 5703 5700
5573 5575 5575 5577 5577 5580 5583 5584 5585 5585 5587 5588 5587 5586 5582 5591 5607 5607 5604 5600 5603 5600 5595 5599 5599 5598 5604 5605 5614 5618 5616 5626 5632 5638 5640 5646 5652 5661 5672 5680 5682 5689 5695 5699 5700
5568 5569 5569 5570 5571 5573 5576 5577 5577 5578 5579 5580 5580 5579 5575 5595 5598 5597 5597 5591 5594 5593 5592 5593 5594 5591 5593 5600 5598 5598 5603 5605 5629 5631 5635 5630 5662 5665 5670 5672 5674 5680 5686 5691 5697
5563 5563 5563 5563 5564 5565 5568 5569 5570 5571 5572 5572 5572 5571 5572 5591 5588 5591 5589 5582 5584 5584 5584 5587 5584 5581 5580 5578 5577 5581 5586 5597 5610 5625 5623 5625 5657 5660 5663 5663 5669 5676 5680 5685 5688
5555 5557 5557 5557 5556 5558 5559 5560 5561 5563 5566 5566 5568 5563 5575 5580 5584 5585 5581 5578 5573 5572 5571 5570 5563 5559 5557 5564 5577 5583 5582 5592 5595 5608 5613 5622 5643 5644 5654 5659 5665 5673 5677 5678 5683
5547 5549 5550 5550 5549 5550 5549 5547 5546 5550 5560 5570 5573 5573 5576 5579 5578 5574 5573 5567 5563 5558 5548 5550 5542 5554 5554 5562 5563 5563 5570 5577 5582 5591 5592 5604 5623 5632 5643 5651 5656 5664 5669 5672 5677
5540 5542 5542 5541 5541 5542 5542 5541 5549 5557 5554 5562 5564 5565 5566 5567 5563 5562 5562 5551 5549 5546 5534 5530 5537 5551 5548 5547 5550 5553 5555 5564 5568 5573 5581 5593 5610 5624 5643 5654 5658 5662 5662 5665 5671
5530 5533 5533 5532 5531 5533 5534 5539 5542 5547 5541 5558 5557 5557 5556 5554 5556 5554 5550 5545 5541 5539 5534 5525 5539 5543 5539 5539 5537 5543 5544 5544 5547 5556 5576 5578 5601 5612 5637 5647 5656 5662 5664 5665 5671
5516 5521 5523 5522 5520 5523 5528 5530 5533 5536 5523 5549 5545 5552 5551 5547 5547 5549 5546 5540 5528 5529 5515 5516 5526 5529 5529 5528 5524 5530 5539 5540 5542 5542 5549 5569 5583 5609 5629 5640 5647 5658 5654 5663 5664
5503 5509 5513 5517 5518 5519 5525 5523 5524 5522 5481 5541 5536 5543 5541 5542 5542 5535 5538 5530 5520 5514 5504 5510 5514 5512 5513 5521 5523 5525 5529 5530 5533 5534 5532 5557 5550 5608 5616 5633 5651 5664 5658 5665 5667
5498 5500 5503 5506 5511 5513 5516 5515 5511 5482 5484 5535 5532 5526 5525 5528 5531 5527 5519 5514 5509 5502 5504 5502 5506 5508 5516 5517 5516 5516 5516 5519 5523 5524 5527 5568 5556 5600 5614 5639 5651 5659 5656 5660 5662
5489 5497 5499 5502 5506 5504 5506 5503 5492 5460 5540 5531 5530 5521 5521 5523 5518 5514 5505 5494 5492 5488 5483 5477 5480 5493 5502 5502 5505 5500 5499 5493 5495 5508 5538 5565 5557 5593 5624 5643 5661 5664 5657 5657 5659
5487 5496 5493 5496 5502 5499 5498 5493 5455 5528 5528 5536 5527 5519 5518 5520 5509 5512 5497 5486 5482 5472 5474 5483 5476 5488 5501 5503 5501 5501 5504 5498 5495 5499 5537 5564 5564 5596 5632 5648 5651 5658 5658 5654 5651
5482 5498 5489 5487 5496 5495 5495 5483 5493 5528 5537 5529 5522 5513 5515 5510 5508 5498 5488 5482 5486 5478 5474 5472 5474 5496 5499 5497 5496 5493 5487 5521 5510 5528 5534 5562 5584 5608 5631 5641 5650 5659 5656 5656 5655
5475 5492 5488 5486 5489 5489 5486 5492 5510 5532 5526 5526 5521 5516 5512 5507 5496 5478 5480 5496 5491 5489 5482 5478 5456 5491 5493 5490 5490 5496 5511 5489 5493 5495 5532 5564 5577 5608 5633 5643 5643 5645 5652 5652 5649
5473 5489 5484 5481 5481 5478 5490 5499 5514 5521 5524 5521 5521 5520 5512 5505 5494 5485 5491 5505 5500 5501 5486 5479 5470 5474 5470 5484 5494 5485 5490 5506 5516 5521 5539 5568 5588 5630 5646 5649 5644 5641 5650 5648 5644
5482 5480 5486 5481 5483 5481 5496 5508 5518 5519 5519 5519 5517 5514 5517 5510 5494 5486 5498 5513 5516 5511 5488 5493 5478 5480 5490 5500 5496 5501 5506 5511 5518 5526 5543 5544 5577 5630 5655 5651 5648 5635 5647 5641 5639
5487 5487 5478 5484 5488 5488 5504 5511 5515 5518 5520 5517 5518 5517 5525 5517 5506 5504 5514 5529 5524 5518 5506 5490 5489 5492 5502 5497 5502 5502 5510 5511 5518 5544 5547 5548 5583 5615 5629 5636 5639 5636 5638 5635 5631
5481 5483 5481 5480 5493 5498 5501 5510 5512 5516 5519 5518 5521 5520 5524 5523 5521 5529 5524 5531 5528 5523 5508 5491 5494 5502 5521 5535 5532 5533 5529 5531 5523 5538 5549 5563 5572 5600 5617 5629 5630 5632 5635 5633 5630
5482 5499 5504 5487 5493 5505 5509 5516 5516 5516 5512 5516 5512 5521 5524 5524 5529 5525 5531 5531 5526 5520 5505 5494 5504 5500 5518 5532 5526 5543 5547 5540 5541 5554 5552 5573 5566 5600 5616 5636 5636 5636 5631 5628 5623
5490 5498 5502 5505 5503 5505 5509 5516 5520 5517 5517 5521 5515 5528 5521 5521 5536 5539 5538 5539 5526 5518 5508 5502 5508 5516 5552 5558 5550 5567 5562 5564 5559 5546 5547 5555 5566 5606 5630 5633 5631 5633 5631 5627 5623
5487 5499 5512 5503 5506 5502 5512 5518 5522 5521 5520 5523 5525 5528 5523 5529 5536 5541 5547 5549 5547 5534 5519 5511 5513 5547 5561 5572 5566 5565 5571 5567 5544 5548 5551 5554 5589 5629 5631 5632 5627 5627 5631 5629 5624